Time,TemperatureF,DewpointF,PressureIn,WindDirection,WindDirectionDegrees,WindSpeedMPH,WindSpeedGustMPH,Humidity,HourlyPrecipIn,Conditions,Clouds,dailyrainin,SoftwareType,DateUTC
2013-08-14 00:12:00,67.0,64.0,29.98,SSW,199,0.0,0.0,89,0.00,,,0.22,,2013-08-14 04:12:00,
2013-08-14 00:23:00,66.0,63.0,29.98,SSW,199,0.0,0.0,89,0.00,,,0.22,,2013-08-14 04:23:00,
2013-08-14 00:52:00,66.0,63.0,29.98,SE,143,0.0,2.0,90,0.00,,,0.22,,2013-08-14 04:52:00,
2013-08-14 01:12:00,65.0,62.0,29.97,SE,143,0.0,0.0,89,0.00,,,0.22,,2013-08-14 05:12:00,
2013-08-14 01:22:00,65.0,62.0,29.97,SE,143,0.0,0.0,90,0.00,,,0.22,,2013-08-14 05:22:00,
2013-08-14 01:52:00,65.0,62.0,29.98,SE,143,2.0,3.0,90,0.00,,,0.22,,2013-08-14 05:52:00,
2013-08-14 02:11:00,64.0,61.0,29.98,SE,143,0.0,0.0,90,0.00,,,0.22,,2013-08-14 06:11:00,
2013-08-14 02:21:00,64.0,61.0,29.98,SE,143,0.0,2.0,91,0.00,,,0.22,,2013-08-14 06:21:00,
2013-08-14 02:52:00,64.0,61.0,29.98,SE,143,0.0,0.0,91,0.00,,,0.22,,2013-08-14 06:52:00,
2013-08-14 03:11:00,64.0,61.0,29.98,SE,143,0.0,0.0,90,0.00,,,0.22,,2013-08-14 07:11:00,
2013-08-14 03:21:00,64.0,61.0,29.97,SE,143,0.0,1.0,91,0.00,,,0.22,,2013-08-14 07:21:00,
2013-08-14 03:52:00,64.0,61.0,29.97,SE,143,0.0,0.0,91,0.00,,,0.22,,2013-08-14 07:52:00,
2013-08-14 04:21:00,63.0,61.0,29.97,SE,143,0.0,0.0,93,0.00,,,0.22,,2013-08-14 08:21:00,
2013-08-14 04:52:00,63.0,61.0,29.97,SE,143,0.0,0.0,93,0.00,,,0.22,,2013-08-14 08:52:00,
2013-08-14 05:21:00,63.0,61.0,29.97,SE,143,0.0,0.0,93,0.00,,,0.22,,2013-08-14 09:21:00,
2013-08-14 05:53:00,63.0,61.0,29.97,SE,143,0.0,0.0,93,0.00,,,0.22,,2013-08-14 09:53:00,
2013-08-14 06:12:00,62.0,60.0,29.98,SE,143,0.0,0.0,92,0.00,,,0.22,,2013-08-14 10:12:00,
2013-08-14 06:23:00,62.0,60.0,29.98,SE,143,0.0,0.0,93,0.00,,,0.22,,2013-08-14 10:23:00,
2013-08-14 06:52:00,61.0,59.0,29.98,SE,143,0.0,0.0,93,0.00,,,0.22,,2013-08-14 10:52:00,
2013-08-14 07:21:00,61.0,59.0,29.99,SE,143,0.0,1.0,94,0.00,,,0.22,,2013-08-14 11:21:00,
2013-08-14 07:52:00,61.0,60.0,30.01,SE,143,0.0,1.0,95,0.00,,,0.22,,2013-08-14 11:52:00,
2013-08-14 08:11:00,61.0,60.0,30.00,SE,143,0.0,2.0,96,0.00,,,0.22,,2013-08-14 12:11:00,
2013-08-14 08:21:00,61.0,60.0,30.01,SE,143,0.0,0.0,95,0.00,,,0.22,,2013-08-14 12:21:00,
2013-08-14 08:52:00,62.0,61.0,30.02,SE,143,0.0,0.0,96,0.00,,,0.22,,2013-08-14 12:52:00,
2013-08-14 09:11:00,62.0,61.0,30.02,SE,144,0.0,0.0,96,0.00,,,0.22,,2013-08-14 13:11:00,
2013-08-14 09:22:00,62.0,61.0,30.03,SE,144,0.0,0.0,96,0.00,,,0.22,,2013-08-14 13:22:00,
2013-08-14 09:52:00,63.0,62.0,30.03,SE,144,0.0,0.0,95,0.00,,,0.22,,2013-08-14 13:52:00,
2013-08-14 10:11:00,63.0,62.0,30.03,West,259,0.0,3.0,95,0.00,,,0.22,,2013-08-14 14:11:00,
2013-08-14 10:22:00,63.0,61.0,30.04,West,259,0.0,1.0,93,0.00,,,0.22,,2013-08-14 14:22:00,
2013-08-14 10:52:00,65.0,62.0,30.04,West,259,0.0,0.0,91,0.00,,,0.21,,2013-08-14 14:52:00,
2013-08-14 11:11:00,65.0,61.0,30.04,West,259,0.0,1.0,88,0.00,,,0.21,,2013-08-14 15:11:00,
2013-08-14 11:22:00,66.0,62.0,30.04,West,259,0.0,2.0,87,0.00,,,0.21,,2013-08-14 15:22:00,
2013-08-14 11:56:00,67.0,62.0,30.03,West,260,0.0,0.0,85,0.00,,,0.21,,2013-08-14 15:56:00,
2013-08-14 12:28:00,69.0,61.0,30.03,SSW,213,1.0,4.0,77,0.00,,,0.21,,2013-08-14 16:28:00,
2013-08-14 13:29:00,70.0,61.0,30.04,SW,215,0.0,3.0,74,0.00,,,0.21,,2013-08-14 17:29:00,
2013-08-14 13:55:00,72.0,62.0,30.03,NE,44,0.0,2.0,71,0.00,,,0.21,,2013-08-14 17:55:00,
2013-08-14 14:36:00,72.0,62.0,30.04,West,260,0.0,4.0,70,0.00,,,0.21,,2013-08-14 18:36:00,
2013-08-14 15:14:00,75.0,62.0,30.03,ENE,60,1.0,6.0,63,0.00,,,0.19,,2013-08-14 19:14:00,
2013-08-14 15:34:00,75.0,62.0,30.03,NE,52,0.0,3.0,64,0.00,,,0.19,,2013-08-14 19:34:00,
2013-08-14 15:54:00,74.0,62.0,30.03,SW,214,0.0,3.0,67,0.00,,,0.00,,2013-08-14 19:54:00,
2013-08-14 16:52:00,74.0,61.0,30.02,NNW,338,0.0,5.0,64,0.00,,,0.00,,2013-08-14 20:52:00,
2013-08-14 17:13:00,73.0,63.0,30.01,NNW,339,0.0,0.0,70,0.00,,,0.00,,2013-08-14 21:13:00,
2013-08-14 17:24:00,73.0,63.0,30.01,NNW,339,0.0,0.0,70,0.00,,,0.00,,2013-08-14 21:24:00,
2013-08-14 17:34:00,73.0,63.0,30.01,NNW,339,0.0,0.0,70,0.00,,,0.00,,2013-08-14 21:34:00,
2013-08-14 18:23:00,70.0,59.0,30.04,NNE,18,2.0,4.0,69,0.00,,,0.00,,2013-08-14 22:23:00,
2013-08-14 18:54:00,69.0,61.0,30.04,NNE,18,0.0,0.0,75,0.00,,,0.00,,2013-08-14 22:54:00,
2013-08-14 19:25:00,69.0,62.0,30.05,NNE,18,0.0,0.0,78,0.00,,,0.00,,2013-08-14 23:25:00,
2013-08-14 19:56:00,68.0,62.0,30.06,NNE,18,0.0,0.0,81,0.00,,,0.00,,2013-08-14 23:56:00,
2013-08-14 20:12:00,68.0,62.0,30.06,NNE,18,0.0,0.0,80,0.00,,,0.00,,2013-08-15 00:12:00,
2013-08-14 20:23:00,67.0,61.0,30.06,NNE,18,0.0,0.0,80,0.00,,,0.00,,2013-08-15 00:23:00,
2013-08-14 20:43:00,67.0,61.0,30.07,NNE,18,0.0,0.0,81,0.00,,,0.00,,2013-08-15 00:43:00,
2013-08-14 20:52:00,66.0,60.0,30.07,NNE,18,0.0,0.0,81,0.00,,,0.00,,2013-08-15 00:52:00,
2013-08-14 21:16:00,65.0,59.0,30.08,NNE,18,0.0,0.0,82,0.00,,,0.00,,2013-08-15 01:16:00,
2013-08-14 21:22:00,65.0,59.0,30.08,NNE,18,0.0,1.0,82,0.00,,,0.00,,2013-08-15 01:22:00,
2013-08-14 21:52:00,64.0,58.0,30.09,NNE,18,0.0,1.0,82,0.00,,,0.00,,2013-08-15 01:52:00,
2013-08-14 22:21:00,64.0,58.0,30.09,NE,45,0.0,0.0,82,0.00,,,0.00,,2013-08-15 02:21:00,
2013-08-14 23:22:00,64.0,59.0,30.11,NE,45,0.0,1.0,85,0.00,,,0.00,,2013-08-15 03:22:00,
2013-08-14 23:53:00,64.0,59.0,30.11,NE,45,0.0,1.0,85,0.00,,,0.00,,2013-08-15 03:53:00,